SQ6MTB Weather Reports


Display with metric or nautical units.
time (UTC)temp
F
wind
direction
speed
MPH
gust
MPH
rain 1hr
in
rain 24hr
in
rain mn
in
humidity
%
barometer
mb
20260831115554 72 169 3.0 7.0 0.00 0.00 0.00 70 1012.7
20260831115036 72 192 2.0 7.0 0.00 0.00 0.00 71 1012.6
20260831114518 72 288 3.0 7.0 0.00 0.00 0.00 71 1012.7
20260831114028 72 226 0.0 9.0 0.00 0.00 0.00 71 1012.8
20260831113532 72 148 3.0 11.0 0.00 0.00 0.00 71 1012.8
20260831113047 71 272 2.0 11.0 0.00 0.00 0.00 72 1012.8
20260831112548 71 191 3.0 11.0 0.00 0.00 0.00 70 1012.9
20260831112029 72 154 4.0 11.0 0.00 0.00 0.00 70 1012.9
20260831111509 71 227 2.0 12.0 0.00 0.00 0.00 70 1013.0
20260831111018 71 247 2.0 12.0 0.00 0.00 0.00 70 1012.9
20260831110527 71 149 3.0 9.0 0.00 0.00 0.00 72 1012.9
20260831110018 70 78 1.0 6.0 0.00 0.00 0.00 74 1012.9
20260831105515 69 173 0.0 2.0 0.00 0.00 0.00 75 1012.9
20260831105022 68 173 0.0 4.0 0.00 0.00 0.00 75 1013.0
20260831104529 68 222 0.0 4.0 0.00 0.00 0.00 77 1013.1
20260831104045 67 262 0.0 8.0 0.00 0.00 0.00 78 1013.1
20260831103546 67 215 1.0 8.0 0.00 0.00 0.00 77 1013.2
20260831103032 67 238 1.0 4.0 0.00 0.00 0.00 77 1013.2
20260831102542 67 217 0.0 4.0 0.00 0.00 0.00 77 1013.3
20260831102049 67 237 0.0 5.0 0.00 0.00 0.00 77 1013.3
20260831101602 67 240 1.0 6.0 0.00 0.00 0.00 77 1013.3
20260831101100 66 244 2.0 8.0 0.00 0.00 0.00 78 1013.3
20260831101009 66 244 2.0 8.0 0.00 0.00 0.00 78 1013.3
20260831100546 66 212 2.0 8.0 0.00 0.00 0.00 78 1013.2
20260831100105 66 238 2.0 11.0 0.00 0.00 0.00 78 1013.2
20260831095504 66 250 3.0 11.0 0.00 0.00 0.00 76 1013.3
20260831095015 66 236 3.0 9.0 0.00 0.00 0.00 75 1013.4
20260831094518 66 242 3.0 9.0 0.00 0.00 0.00 76 1013.3
20260831094100 66 251 2.0 9.0 0.00 0.00 0.00 76 1013.3
20260831093510 66 228 5.0 10.0 0.00 0.00 0.00 76 1013.3
20260831093036 66 213 6.0 10.0 0.00 0.00 0.00 75 1013.3
20260831092551 65 254 5.0 10.0 0.00 0.00 0.00 76 1013.2
20260831092032 65 248 2.0 8.0 0.00 0.00 0.00 76 1013.1
20260831091543 65 278 1.0 8.0 0.00 0.00 0.00 76 1013.2
20260831091047 65 227 3.0 9.0 0.00 0.00 0.00 76 1013.3
20260831090552 65 250 4.0 12.0 0.00 0.00 0.00 75 1013.3
20260831090004 66 233 6.0 12.0 0.00 0.00 0.00 75 1013.4
20260831085510 66 261 5.0 10.0 0.00 0.00 0.00 75 1013.2
20260831085050 66 224 5.0 11.0 0.00 0.00 0.00 74 1013.3
20260831084605 66 215 6.0 11.0 0.00 0.00 0.00 74 1013.3
20260831084502 66 264 6.0 12.0 0.00 0.00 0.00 74 1013.2
20260831084009 66 277 5.0 12.0 0.00 0.00 0.00 74 1013.1
20260831083545 66 261 6.0 14.0 0.00 0.00 0.00 74 1013.0
20260831083028 66 275 8.0 13.0 0.00 0.00 0.00 74 1013.0
20260831082536 66 237 8.0 12.0 0.00 0.00 0.00 74 1013.1
20260831082048 65 265 8.0 11.0 0.00 0.00 0.00 75 1013.1
20260831081559 65 238 6.0 11.0 0.00 0.00 0.00 75 1013.0
20260831081003 65 200 6.0 13.0 0.00 0.00 0.00 75 1013.0
20260831080510 65 227 5.0 13.0 0.00 0.00 0.00 75 1012.8
20260831080017 65 235 7.0 12.0 0.00 0.00 0.00 75 1012.8
20260831075525 64 239 4.0 9.0 0.00 0.00 0.00 76 1012.7
20260831075010 64 254 2.0 9.0 0.00 0.00 0.00 76 1012.4
20260831074517 64 201 4.0 9.0 0.00 0.00 0.00 76 1012.4
20260831074026 65 169 3.0 10.0 0.00 0.00 0.00 75 1012.3
20260831073526 65 205 4.0 10.0 0.00 0.00 0.00 74 1012.2
20260831073009 65 232 2.0 9.0 0.00 0.00 0.00 73 1012.1
20260831072544 65 223 2.0 9.0 0.00 0.00 0.00 72 1011.9
20260831072023 65 196 3.0 10.0 0.00 0.00 0.00 72 1012.1
20260831071540 65 181 1.0 10.0 0.00 0.00 0.00 72 1012.1
20260831071047 65 184 3.0 10.0 0.00 0.00 0.00 71 1012.2
20260831070544 65 188 3.0 8.0 0.00 0.00 0.00 70 1012.2
20260831070028 65 196 4.0 11.0 0.00 0.00 0.00 70 1012.3
20260831065511 65 202 3.0 9.0 0.00 0.00 0.00 70 1012.3
20260831065048 65 162 1.0 8.0 0.00 0.00 0.00 70 1012.3
20260831064604 65 169 2.0 9.0 0.00 0.00 0.00 70 1012.2
20260831064003 65 133 3.0 8.0 0.00 0.00 0.00 70 1012.2
20260831063511 65 242 2.0 8.0 0.00 0.00 0.00 70 1012.3
20260831063022 65 187 0.0 9.0 0.00 0.00 0.00 70 1012.3
20260831062554 65 211 2.0 9.0 0.00 0.00 0.00 71 1012.3
20260831062040 64 215 3.0 9.0 0.00 0.00 0.00 72 1012.4
20260831061542 64 192 2.0 5.0 0.00 0.00 0.00 72 1012.2
20260831061025 63 173 2.0 6.0 0.00 0.00 0.00 75 1012.2
20260831060505 62 193 1.0 6.0 0.00 0.00 0.00 77 1012.2
20260831060013 61 192 1.0 4.0 0.00 0.00 0.00 80 1012.3
20260831055530 60 161 0.0 0.0 0.00 0.00 0.00 82 1012.2
20260831055056 60 119 0.0 0.0 0.00 0.00 0.00 84 1012.2
20260831054540 59 242 0.0 0.0 0.00 0.00 0.00 84 1012.2
20260831054049 59 242 0.0 0.0 0.00 0.00 0.00 85 1012.2
20260831053523 59 242 0.0 0.0 0.00 0.00 0.00 86 1012.3
20260831053025 58 242 0.0 0.0 0.00 0.00 0.00 86 1012.3
20260831052513 58 242 0.0 0.0 0.00 0.00 0.00 87 1012.4
20260831052022 58 242 0.0 0.0 0.00 0.00 0.00 87 1012.5
20260831051534 58 242 0.0 0.0 0.00 0.00 0.00 87 1012.5
20260831051012 57 242 0.0 0.0 0.00 0.00 0.00 88 1012.5
20260831050519 57 242 0.0 0.0 0.00 0.00 0.00 88 1012.3
20260831050027 57 242 0.0 0.0 0.00 0.00 0.00 88 1012.4
20260831045537 56 242 0.0 0.0 0.00 0.00 0.00 88 1012.4
20260831045022 56 242 0.0 0.0 0.00 0.00 0.00 88 1012.4
20260831044529 56 242 0.0 0.0 0.00 0.00 0.00 88 1012.4
20260831044042 56 242 0.0 0.0 0.00 0.00 0.00 88 1012.4
20260831043521 56 242 0.0 0.0 0.00 0.00 0.00 88 1012.5
20260831043003 56 242 0.0 0.0 0.00 0.00 0.00 88 1012.5
20260831042513 56 242 0.0 0.0 0.00 0.00 0.00 88 1012.4
20260831042023 56 242 0.0 0.0 0.00 0.00 0.00 88 1012.4
20260831041559 56 242 0.0 0.0 0.00 0.00 0.00 88 1012.4
20260831041506 56 242 0.0 0.0 0.00 0.00 0.00 88 1012.4
20260831041045 56 242 0.0 0.0 0.00 0.00 0.00 88 1012.4
20260831040553 56 242 0.0 0.0 0.00 0.00 0.00 87 1012.5
20260831040005 56 242 0.0 0.0 0.00 0.00 0.00 87 1012.7
20260831035545 56 242 0.0 0.0 0.00 0.00 0.00 87 1012.7
20260831035029 56 242 0.0 0.0 0.00 0.00 0.00 87 1012.8
20260831034542 56 242 0.0 0.0 0.00 0.00 0.00 87 1012.7
20260831034047 57 242 0.0 0.0 0.00 0.00 0.00 86 1012.7
20260831033531 57 242 0.0 0.0 0.00 0.00 0.00 86 1012.8
20260831033027 57 242 0.0 0.0 0.00 0.00 0.00 86 1012.8
20260831032521 57 242 0.0 0.0 0.00 0.00 0.00 86 1012.9
20260831032031 57 242 0.0 0.0 0.00 0.00 0.00 86 1012.8
20260831031539 57 242 0.0 0.0 0.00 0.00 0.00 86 1013.0
20260831031025 57 242 0.0 0.0 0.00 0.00 0.00 86 1013.1
20260831030531 57 242 0.0 0.0 0.00 0.00 0.00 86 1013.0
20260831030043 58 242 0.0 0.0 0.00 0.00 0.00 86 1013.1
20260831025528 58 242 0.0 0.0 0.00 0.00 0.00 86 1013.1
20260831025009 58 242 0.0 0.0 0.00 0.00 0.00 85 1013.1
20260831024521 58 242 0.0 0.0 0.00 0.00 0.00 85 1013.1
20260831024100 58 242 0.0 0.0 0.00 0.00 0.00 85 1013.2
20260831024008 58 242 0.0 0.0 0.00 0.00 0.00 85 1013.2
20260831023546 58 242 0.0 0.0 0.00 0.00 0.00 85 1013.1
20260831023102 58 242 0.0 0.0 0.00 0.00 0.00 85 1013.2
20260831022508 58 242 0.0 0.0 0.00 0.00 0.00 84 1013.3
20260831022050 58 242 0.0 0.0 0.00 0.00 0.00 84 1013.3
20260831021557 58 242 0.0 0.0 0.00 0.00 0.00 84 1013.4
20260831021009 58 242 0.0 0.0 0.00 0.00 0.00 83 1013.4
20260831020520 58 242 0.0 0.0 0.00 0.00 0.00 83 1013.5
20260831020114 58 242 0.0 0.0 0.00 0.00 0.00 83 1013.5
20260831020004 58 242 0.0 0.0 0.00 0.00 0.00 83 1013.5
20260831015512 59 242 0.0 0.0 0.00 0.00 0.00 83 1013.6
20260831015019 59 242 0.0 0.0 0.00 0.00 0.00 83 1013.5
20260831014527 59 242 0.0 0.0 0.00 0.00 0.00 83 1013.6
20260831014009 59 242 0.0 0.0 0.00 0.00 0.00 82 1013.7
20260831013549 59 242 0.0 0.0 0.00 0.00 0.00 82 1013.7
20260831013100 59 242 0.0 0.0 0.00 0.00 0.00 82 1013.7
20260831013001 59 242 0.0 0.0 0.00 0.00 0.00 82 1013.6
20260831012511 59 242 0.0 0.0 0.00 0.00 0.00 82 1013.5
20260831012051 59 242 0.0 0.0 0.00 0.00 0.00 83 1013.6
20260831011606 59 242 0.0 0.0 0.00 0.00 0.00 83 1013.6
20260831011503 59 242 0.0 0.0 0.00 0.00 0.00 82 1013.6
20260831011009 59 242 0.0 0.0 0.00 0.00 0.00 82 1013.6
20260831010518 60 242 0.0 0.0 0.00 0.00 0.00 82 1013.7
20260831010057 60 242 0.0 0.0 0.00 0.00 0.00 82 1013.7
20260831005509 60 242 0.0 0.0 0.00 0.00 0.00 82 1013.8
20260831005021 60 242 0.0 0.0 0.00 0.00 0.00 82 1013.8
20260831004537 60 242 0.0 0.0 0.00 0.00 0.00 82 1013.9
20260831004049 60 242 0.0 0.0 0.00 0.00 0.00 81 1013.8
20260831003556 60 242 0.0 0.0 0.00 0.00 0.00 81 1013.8
20260831003008 61 242 0.0 0.0 0.00 0.00 0.00 81 1013.6
20260831002543 61 242 0.0 0.0 0.00 0.00 0.00 81 1013.9
20260831002031 61 242 0.0 0.0 0.00 0.00 0.00 80 1013.8
20260831001535 61 242 0.0 0.0 0.00 0.00 0.00 80 1013.8
20260831001039 61 242 0.0 0.0 0.00 0.00 0.00 81 1013.8
20260831000519 61 242 0.0 0.0 0.00 0.00 0.00 80 1013.8
20260831000059 61 242 0.0 0.0 0.00 0.00 0.00 80 1013.8
20260831000001 61 242 0.0 0.0 0.00 0.00 0.00 80 1013.8
20260830235509 62 242 0.0 0.0 0.00 0.00 0.00 80 1013.9
20260830235025 62 242 0.0 0.0 0.00 0.00 0.00 80 1013.9
20260830234611 62 242 0.0 0.0 0.00 0.00 0.00 80 1013.9
20260830234501 62 242 0.0 0.0 0.00 0.00 0.00 80 1013.9
20260830234015 62 242 0.0 0.0 0.00 0.00 0.00 80 1013.8
20260830233521 62 242 0.0 0.0 0.00 0.00 0.00 80 1013.9
20260830233028 62 242 0.0 0.0 0.00 0.00 0.00 80 1013.9
20260830232513 62 242 0.0 0.0 0.00 0.00 0.00 80 1013.9
20260830232027 62 242 0.0 0.0 0.00 0.00 0.00 79 1013.9
20260830231536 63 242 0.0 0.0 0.00 0.00 0.00 79 1013.9
20260830231042 63 242 0.0 0.0 0.00 0.00 0.00 79 1014.0
20260830230525 63 242 0.0 0.0 0.00 0.00 0.00 79 1013.9
20260830230035 63 242 0.0 0.0 0.00 0.00 0.00 79 1014.0
20260830225544 63 242 0.0 0.0 0.00 0.00 0.00 79 1014.0
20260830225030 63 242 0.0 0.0 0.00 0.00 0.00 79 1013.9
20260830224509 63 242 0.0 0.0 0.00 0.00 0.00 79 1014.0
20260830224017 63 242 0.0 0.0 0.00 0.00 0.00 79 1013.9
20260830223525 63 242 0.0 0.0 0.00 0.00 0.00 79 1014.0
20260830223008 64 242 0.0 0.0 0.00 0.00 0.00 78 1014.0
20260830222547 64 242 0.0 0.0 0.00 0.00 0.00 78 1014.0
20260830222056 64 242 0.0 0.0 0.00 0.00 0.00 78 1013.9
20260830221511 64 242 0.0 0.0 0.00 0.00 0.00 78 1014.0
20260830221016 64 242 0.0 0.0 0.00 0.00 0.00 78 1014.0
20260830220557 64 242 0.0 0.0 0.00 0.00 0.00 78 1014.0
20260830220009 64 242 0.0 0.0 0.00 0.00 0.00 78 1013.9
20260830215513 64 242 0.0 0.0 0.00 0.00 0.00 78 1014.0
20260830215023 64 242 0.0 3.0 0.00 0.00 0.00 78 1014.0
20260830214603 64 242 0.0 3.0 0.00 0.00 0.00 78 1014.0
20260830214502 64 242 0.0 3.0 0.00 0.00 0.00 78 1014.1
20260830214011 64 240 0.0 2.0 0.00 0.00 0.00 78 1014.0
20260830213524 64 248 0.0 2.0 0.00 0.00 0.00 78 1014.0
20260830213044 64 248 0.0 2.0 0.00 0.00 0.00 78 1014.0
20260830212515 64 248 0.0 4.0 0.00 0.00 0.00 78 1014.0
20260830212054 64 248 0.0 4.0 0.00 0.00 0.00 78 1013.9
20260830211503 64 242 2.0 4.0 0.00 0.00 0.00 78 1013.9
20260830211042 65 245 0.0 2.0 0.00 0.00 0.00 78 1013.8
20260830210552 65 245 0.0 4.0 0.00 0.00 0.00 78 1013.9
20260830210008 65 245 2.0 4.0 0.00 0.00 0.00 78 1013.9
20260830205515 65 237 1.0 4.0 0.00 0.00 0.00 78 1013.9
20260830205020 65 237 1.0 4.0 0.00 0.00 0.00 78 1013.8
20260830204610 65 237 0.0 0.0 0.00 0.00 0.00 78 1013.7
20260830204502 65 237 0.0 0.0 0.00 0.00 0.00 78 1013.8
20260830204010 65 237 0.0 0.0 0.00 0.00 0.00 78 1013.7
20260830203518 65 237 0.0 0.0 0.00 0.00 0.00 78 1013.7
20260830203041 65 237 0.0 0.0 0.00 0.00 0.00 78 1013.6
20260830202513 65 237 0.0 0.0 0.00 0.00 0.00 78 1013.6
20260830202026 65 237 0.0 0.0 0.00 0.00 0.00 78 1013.6
20260830201530 65 237 0.0 0.0 0.00 0.00 0.00 78 1013.6
20260830201017 65 237 0.0 0.0 0.00 0.00 0.00 78 1013.6
20260830200558 65 237 0.0 0.0 0.00 0.00 0.00 77 1013.6
20260830200008 65 237 0.0 0.0 0.00 0.00 0.00 77 1013.6
20260830195518 66 237 0.0 0.0 0.00 0.00 0.00 77 1013.6
20260830195101 66 237 0.0 0.0 0.00 0.00 0.00 78 1013.6
20260830195005 66 237 0.0 0.0 0.00 0.00 0.00 78 1013.6
20260830194512 66 237 0.0 0.0 0.00 0.00 0.00 78 1013.6
20260830194021 66 237 0.0 0.0 0.00 0.00 0.00 78 1013.6
20260830193556 66 237 0.0 0.0 0.00 0.00 0.00 77 1013.5
20260830193505 66 237 0.0 0.0 0.00 0.00 0.00 77 1013.5
20260830193044 66 237 0.0 0.0 0.00 0.00 0.00 77 1013.5
20260830192554 67 237 0.0 0.0 0.00 0.00 0.00 77 1013.4
20260830192100 67 237 0.0 0.0 0.00 0.00 0.00 77 1013.4
20260830192006 67 237 0.0 0.0 0.00 0.00 0.00 77 1013.4
20260830191546 67 237 0.0 0.0 0.00 0.00 0.00 76 1013.4
20260830191054 67 237 0.0 0.0 0.00 0.00 0.00 76 1013.5
20260830190506 68 237 0.0 0.0 0.00 0.00 0.00 76 1013.5
20260830190014 68 237 0.0 0.0 0.00 0.00 0.00 75 1013.5
20260830185555 68 237 0.0 0.0 0.00 0.00 0.00 75 1013.4
20260830185009 68 237 0.0 0.0 0.00 0.00 0.00 74 1013.4
20260830184548 69 237 0.0 0.0 0.00 0.00 0.00 73 1013.4
20260830184035 69 237 0.0 0.0 0.00 0.00 0.00 73 1013.3
20260830183539 69 237 0.0 0.0 0.00 0.00 0.00 72 1013.2
20260830183020 70 237 0.0 0.0 0.00 0.00 0.00 72 1013.2
20260830182600 70 237 0.0 0.0 0.00 0.00 0.00 71 1013.2
20260830182504 70 237 0.0 0.0 0.00 0.00 0.00 71 1013.1
20260830182012 70 237 0.0 0.0 0.00 0.00 0.00 70 1013.1
20260830181521 71 237 0.0 0.0 0.00 0.00 0.00 70 1013.0
20260830181056 71 237 0.0 0.0 0.00 0.00 0.00 69 1013.0
20260830180542 72 237 0.0 0.0 0.00 0.00 0.00 68 1013.0
20260830180054 72 237 0.0 0.0 0.00 0.00 0.00 67 1013.0
20260830175554 72 237 0.0 0.0 0.00 0.00 0.00 66 1012.9
20260830175502 72 237 0.0 0.0 0.00 0.00 0.00 66 1012.9
20260830175036 73 237 0.0 0.0 0.00 0.00 0.00 65 1012.9
20260830174526 73 237 0.0 0.0 0.00 0.00 0.00 65 1012.8
20260830174036 74 237 0.0 2.0 0.00 0.00 0.00 64 1012.9
20260830173547 74 237 0.0 4.0 0.00 0.00 0.00 63 1012.8
20260830173024 74 232 1.0 4.0 0.00 0.00 0.00 62 1012.8
20260830172506 75 235 1.0 4.0 0.00 0.00 0.00 61 1012.7
20260830172014 75 276 1.0 6.0 0.00 0.00 0.00 61 1012.7
20260830171523 75 271 1.0 6.0 0.00 0.00 0.00 61 1012.7
20260830171056 75 269 2.0 7.0 0.00 0.00 0.00 60 1012.6
20260830171005 75 275 2.0 7.0 0.00 0.00 0.00 60 1012.6
20260830170540 76 262 3.0 8.0 0.00 0.00 0.00 59 1012.6
20260830170048 76 268 3.0 8.0 0.00 0.00 0.00 58 1012.6
20260830165554 76 246 3.0 8.0 0.00 0.00 0.00 58 1012.5
20260830165006 77 257 4.0 7.0 0.00 0.00 0.00 57 1012.5
20260830164544 77 281 2.0 7.0 0.00 0.00 0.00 57 1012.4
20260830164028 77 244 1.0 8.0 0.00 0.00 0.00 57 1012.5
20260830163543 77 223 4.0 8.0 0.00 0.00 0.00 57 1012.5
20260830163046 77 257 3.0 10.0 0.00 0.00 0.00 56 1012.5
20260830162550 77 273 3.0 10.0 0.00 0.00 0.00 56 1012.6
20260830162037 77 237 6.0 10.0 0.00 0.00 0.00 56 1012.5
20260830161600 77 244 5.0 10.0 0.00 0.00 0.00 56 1012.5
20260830161056 77 284 6.0 11.0 0.00 0.00 0.00 55 1012.5
20260830160603 77 276 7.0 12.0 0.00 0.00 0.00 55 1012.4
20260830160502 77 277 6.0 12.0 0.00 0.00 0.00 55 1012.5
20260830160013 78 269 7.0 14.0 0.00 0.00 0.00 54 1012.5
20260830155544 78 271 7.0 14.0 0.00 0.00 0.00 53 1012.6
20260830155030 79 261 8.0 14.0 0.00 0.00 0.00 52 1012.5
20260830154541 79 227 9.0 16.0 0.00 0.00 0.00 52 1012.5
20260830154046 79 265 8.0 16.0 0.00 0.00 0.00 52 1012.4
20260830153553 79 265 9.0 14.0 0.00 0.00 0.00 52 1012.6
20260830153101 80 236 7.0 13.0 0.00 0.00 0.00 52 1012.5
20260830152542 80 250 7.0 13.0 0.00 0.00 0.00 52 1012.6
20260830152051 80 248 8.0 15.0 0.00 0.00 0.00 52 1012.6
20260830151603 80 268 7.0 15.0 0.00 0.00 0.00 52 1012.6
20260830151503 80 256 7.0 15.0 0.00 0.00 0.00 52 1012.6
20260830151038 80 171 4.0 13.0 0.00 0.00 0.00 52 1012.5
20260830150526 80 270 9.0 18.0 0.00 0.00 0.00 52 1012.6
20260830150028 80 263 8.0 16.0 0.00 0.00 0.00 51 1012.6
20260830145533 80 226 4.0 19.0 0.00 0.00 0.00 51 1012.6
20260830145044 80 213 9.0 19.0 0.00 0.00 0.00 51 1012.6
20260830144523 80 248 8.0 16.0 0.00 0.00 0.00 51 1012.6
20260830144005 80 245 9.0 15.0 0.00 0.00 0.00 52 1012.5
20260830143512 80 219 7.0 12.0 0.00 0.00 0.00 51 1012.6
20260830143024 80 279 5.0 13.0 0.00 0.00 0.00 51 1012.6
20260830142554 80 244 9.0 13.0 0.00 0.00 0.00 51 1012.6
20260830142042 80 282 5.0 12.0 0.00 0.00 0.00 50 1012.5
20260830141545 80 273 9.0 17.0 0.00 0.00 0.00 50 1012.5
20260830141049 80 217 8.0 18.0 0.00 0.00 0.00 50 1012.6
20260830140531 80 241 11.0 18.0 0.00 0.00 0.00 48 1012.6
20260830140017 81 244 8.0 18.0 0.00 0.00 0.00 47 1012.6
20260830135521 81 251 9.0 20.0 0.00 0.00 0.00 48 1012.5
20260830135030 81 234 9.0 20.0 0.00 0.00 0.00 49 1012.4
20260830134515 81 252 11.0 16.0 0.00 0.00 0.00 49 1012.4
20260830134054 80 221 7.0 18.0 0.00 0.00 0.00 50 1012.4
20260830133504 80 206 9.0 20.0 0.00 0.00 0.00 50 1012.4
20260830133011 81 287 12.0 19.0 0.00 0.00 0.00 48 1012.4
20260830132547 81 278 5.0 18.0 0.00 0.00 0.00 48 1012.3
20260830132030 81 261 12.0 18.0 0.00 0.00 0.00 47 1012.3
20260830131543 81 259 9.0 17.0 0.00 0.00 0.00 47 1012.3
20260830131052 81 257 8.0 15.0 0.00 0.00 0.00 48 1012.2
20260830130556 81 264 7.0 16.0 0.00 0.00 0.00 48 1012.2
20260830130503 81 221 7.0 16.0 0.00 0.00 0.00 48 1012.2
20260830130052 81 204 7.0 20.0 0.00 0.00 0.00 48 1012.3
20260830125525 81 223 8.0 20.0 0.00 0.00 0.00 47 1012.3
20260830125028 81 259 8.0 17.0 0.00 0.00 0.00 48 1012.3
20260830124534 81 207 7.0 17.0 0.00 0.00 0.00 49 1012.2
20260830124015 81 266 2.0 17.0 0.00 0.00 0.00 49 1012.1
20260830123556 80 242 10.0 17.0 0.00 0.00 0.00 48 1012.3
20260830123006 80 250 11.0 16.0 0.00 0.00 0.00 50 1012.3
20260830122514 79 297 5.0 15.0 0.00 0.00 0.00 51 1012.4
20260830122019 80 216 10.0 17.0 0.00 0.00 0.00 50 1012.4
20260830121556 81 261 7.0 19.0 0.00 0.00 0.00 50 1012.3
20260830121504 81 274 7.0 19.0 0.00 0.00 0.00 51 1012.3
20260830121041 80 169 2.0 19.0 0.00 0.00 0.00 54 1012.3
20260830120550 80 244 8.0 18.0 0.00 0.00 0.00 51 1012.3
20260830120058 80 250 7.0 18.0 0.00 0.00 0.00 53 1012.3